Nenana, AK

5:49 PM AKDT on May 24, 2017 (GMT -0800)
Nenana Municipal

Weather History for PANN - June, 2013

Change the Weather History Date:

Friday, June 21, 2013

  Actual Average Record
Temperature  
Mean Temperature 64 °F -  
Max Temperature 77 °F 74 °F 94 °F (1991)
Min Temperature 54 °F 49 °F 41 °F (1968)
Degree Days  
Heating Degree Days 2    
Growing Degree Days 14 (Base 50)    
Moisture  
Dew Point 49 °F    
Average Humidity 57    
Maximum Humidity 100    
Minimum Humidity 24    
Precipitation  
Precipitation 0.08 in - - ()
Sea Level Pressure  
Sea Level Pressure 29.86 in    
Wind  
Wind Speed 6 mph (South)    
Max Wind Speed 13 mph    
Max Gust Speed 23 mph    
Visibility 9 miles    
Events Rain    
Averages and records for this station are not official NWS values.
T = Trace of Precipitation, MM = Missing Value Source: NWS Daily Summary

Daily Weather History Graph

Daily Weather History Graph

Search for Another Location

Airport or City:

Trip Planner

Search our weather history database for the weather conditions in past years. The results will help you decide how hot, cold, wet, or windy it might be!

Date:

Astronomy

Jun. 21, 2013 Rise Set
Actual Time 3:12 AM AKDT 12:43 AM AKDT
Civil Twilight Sun does not set Sun does not set
Nautical Twilight Sun does not set Sun does not set
Astronomical Twilight Sun does not set Sun does not set
Moon 10:06 PM AKDT (6/21) 2:46 AM AKDT (6/21)
Length of Visible Light 24h 00m
Length of Day
21h 31m
Waxing Gibbous, 96% of the Moon is Illuminated
Jun 21
Waxing Gibbous
Jun 23
Full
Jun 29
Last Quarter
Jul 7
New
Jul 15
First Quarter

Hourly Weather History & Observations

Time (AKDT) Temp. Dew Point Humidity Pressure Visibility Wind Dir Wind Speed Gust Speed Precip Events Conditions
12:53 AM 75.0 °F 41.0 °F 29% 29.80 in 10.0 mi South 12.7 mph 19.6 mph 0.00 in Rain Light Rain
1:05 AM 77.0 °F 39.2 °F 26% 29.78 in 10.0 mi West 5.8 mph 18.4 mph 0.00 in Rain Light Rain
1:53 AM 66.0 °F 48.0 °F 52% 29.81 in 10.0 mi SSW 4.6 mph - 0.00 in   Clear
2:53 AM 64.0 °F 46.9 °F 54% 29.84 in 10.0 mi SSE 3.5 mph - N/A   Overcast
3:53 AM 63.0 °F 46.9 °F 56% 29.84 in 10.0 mi Calm Calm - N/A   Clear
4:53 AM 63.0 °F 46.9 °F 56% 29.84 in 10.0 mi WSW 5.8 mph - N/A   Partly Cloudy
5:53 AM 63.0 °F 46.9 °F 56% 29.85 in 10.0 mi WSW 4.6 mph - N/A   Partly Cloudy
6:53 AM 63.0 °F 46.0 °F 54% 29.85 in 10.0 mi WSW 5.8 mph - N/A   Overcast
7:53 AM 63.0 °F 46.0 °F 54% 29.86 in 10.0 mi Calm Calm - N/A   Clear
8:53 AM 64.9 °F 46.9 °F 52% 29.87 in 10.0 mi Calm Calm - N/A   Mostly Cloudy
9:53 AM 64.0 °F 50.0 °F 60% 29.86 in 10.0 mi SW 3.5 mph - N/A   Overcast
10:53 AM 64.9 °F 48.9 °F 56% 29.87 in 10.0 mi SW 4.6 mph - 0.00 in Rain Light Rain
11:53 AM 64.0 °F 53.1 °F 67% 29.87 in 9.0 mi Calm Calm - 0.00 in Rain Light Rain
12:53 PM 64.0 °F 55.9 °F 75% 29.86 in 10.0 mi East 3.5 mph - 0.00 in   Overcast
1:53 PM 63.0 °F 54.0 °F 72% 29.87 in 10.0 mi ESE 4.6 mph - N/A   Unknown
2:53 PM 66.0 °F 55.9 °F 70% 29.86 in 10.0 mi East 8.1 mph - 0.00 in   Mostly Cloudy
3:53 PM 68.0 °F 53.1 °F 59% 29.85 in 10.0 mi East 6.9 mph - N/A   Scattered Clouds
4:53 PM 71.1 °F 52.0 °F 51% 29.84 in 10.0 mi ENE 9.2 mph - N/A   Partly Cloudy
5:53 PM 72.0 °F 54.0 °F 53% 29.83 in 10.0 mi East 8.1 mph - N/A   Clear
6:53 PM 73.9 °F 50.0 °F 43% 29.81 in 10.0 mi ENE 8.1 mph 16.1 mph N/A   Clear
7:53 PM 72.0 °F 36.0 °F 27% 29.80 in 10.0 mi SE 8.1 mph - N/A   Clear
8:53 PM 72.0 °F 33.1 °F 24% 29.80 in 10.0 mi South 10.4 mph - N/A   Clear
9:53 PM 70.0 °F 52.0 °F 53% 29.80 in 10.0 mi SSW 10.4 mph 23.0 mph N/A   Clear
10:53 PM 64.9 °F 48.9 °F 56% 29.83 in 10.0 mi Variable 5.8 mph - N/A   Partly Cloudy
11:53 PM 60.1 °F 48.0 °F 64% 29.85 in 10.0 mi SW 5.8 mph - N/A   Clear